[[{"header":{"parameterUnit":"m.s-1","parameterCategory":1,"la1":30.2991,"la2":30.254,"lo1":-89.0895,"lo2":-89.0444,"dy":0.0017,"dx":0.0017,"nx":28,"ny":28,"refTime":"2023-09-29T21:00:00:Z","depth":0,"parameterNumber":2,"parameterNumberName":"U-component_of_WINDS"},"data":[0,0,0,0,0,0,0,0,0,0,0,0,0,0,0,0,0,0,0,0,0,0,0,0,0,0,0,0,0,0,0,0,0,0,0,0,0,0,0,0,0,0,0,0,0,0,0,0,0,0,0,0,0,0,0,0,0,0,-1.6705,-1.6705,0,-1.6657,-1.6656,-1.6656,-1.6525,-1.6522,-1.6519,-1.6516,-1.647,-1.6472,-1.6473,0,0,0,0,0,0,0,0,0,0,0,0,0,-1.6687,-1.6688,-1.6705,-1.6705,-1.6704,-1.6657,-1.6656,-1.6656,-1.6525,-1.6522,-1.6518,-1.6515,-1.647,-1.6471,-1.6473,0,0,0,0,0,0,0,0,0,0,0,0,0,-1.6673,-1.6688,-1.6705,-1.6633,-1.6626,-1.6657,-1.6656,-1.6656,-1.6526,-1.6522,-1.6517,-1.6514,-1.6469,-1.6471,-1.6473,-1.6571,0,0,-1.648,-1.6481,0,0,0,0,0,0,0,0,-1.6673,-1.6673,-1.6644,-1.6638,-1.6631,-1.6592,-1.6633,-1.6628,-1.6527,-1.6564,-1.6516,-1.6511,-1.6515,-1.6513,-1.6513,-1.6569,-1.6567,-1.648,-1.6481,-1.6482,-1.6483,0,0,0,0,0,0,0,-1.6675,-1.6675,-1.6686,-1.6644,-1.6636,-1.6604,-1.6597,-1.6631,-1.6564,-1.6561,-1.6551,-1.6547,-1.651,-1.6511,-1.6511,-1.6567,-1.648,-1.6482,-1.6483,-1.6484,-1.67,-1.6704,0,0,0,0,0,0,-1.6686,-1.6676,-1.6688,-1.6685,-1.6642,-1.6608,-1.66,-1.6609,-1.6563,-1.6552,-1.6551,-1.6541,-1.651,-1.6509,-1.6509,-1.662,-1.6482,-1.6484,-1.6485,-1.6696,-1.6701,-1.6706,0,0,0,0,0,0,-1.6686,-1.6688,-1.669,-1.6678,-1.6676,-1.6613,-1.6624,-1.661,-1.6611,-1.6555,-1.6543,-1.6564,-1.6506,-1.6506,-1.6556,-1.6617,-1.6485,-1.6487,-1.669,-1.6697,-1.6703,-1.6844,0,0,0,0,0,0,-1.6686,-1.6689,-1.6725,-1.668,-1.6677,-1.6738,-1.6627,-1.6612,-1.6615,-1.6602,-1.6565,-1.6555,-1.6503,-1.6554,-1.6559,-1.6617,-1.6489,-1.6685,-1.6693,-1.6701,-1.6834,-1.6855,-1.6873,0,0,0,0,0,-1.6686,-1.6767,-1.6727,-1.673,-1.6721,-1.6742,-1.674,-1.6678,-1.6621,-1.6657,-1.662,-1.6556,-1.6609,-1.656,-1.6564,-1.6625,-1.6681,-1.6691,-1.6701,-1.6825,-1.6851,-1.6873,0,0,0,0,0,0,-1.6823,-1.676,-1.6715,-1.6785,-1.6769,-1.672,-1.6763,-1.6707,-1.6709,-1.6697,-1.662,-1.6613,-1.6674,-1.6654,-1.6601,-1.6717,-1.6634,-1.6646,-1.6728,-1.6752,-1.6771,-1.6775,-1.649,0,0,0,0,0,-1.6861,-1.6883,-1.6827,-1.6894,-1.6888,-1.6828,-1.6834,-1.6787,-1.6769,-1.6762,-1.673,-1.6715,-1.6728,-1.6739,-1.6748,-1.683,-1.682,-1.6874,-1.6893,-1.6909,-1.692,-1.6962,-1.6985,-1.6739,-1.6739,-1.6739,0,0,-1.6941,-1.6909,-1.6928,-1.6921,-1.6903,-1.6928,-1.6823,-1.6854,-1.6871,-1.6767,-1.6812,-1.6788,-1.6767,-1.6834,-1.6861,-1.6819,-1.6986,-1.6922,-1.6936,-1.6938,-1.6975,-1.6998,-1.7019,-1.6746,-1.6744,-1.6743,0,0,-1.7098,-1.7077,-1.7129,-1.7114,-1.7088,-1.7047,-1.706,-1.7018,-1.6997,-1.7041,-1.6963,-1.6984,-1.7008,-1.6996,-1.6993,-1.7145,-1.7086,-1.715,-1.7252,-1.7294,-1.7313,-1.733,-1.7384,-1.7405,-1.7161,-1.7161,-1.7161,0,-1.7201,-1.7234,-1.7164,-1.7199,-1.7198,-1.7104,-1.7157,-1.7145,-1.7125,-1.7127,-1.7079,-1.7107,-1.7086,-1.7148,-1.7185,-1.7186,-1.7199,-1.7154,-1.7316,-1.7332,-1.7347,-1.7398,-1.7418,-1.7169,-1.7168,-1.7167,-1.7167,0,-1.7361,-1.7385,-1.7431,-1.7412,-1.7416,-1.7461,-1.7398,-1.7411,-1.7364,-1.7328,-1.7374,-1.7345,-1.7346,-1.7357,-1.7312,-1.7414,-1.7388,-1.7329,-1.7245,-1.7379,-1.7426,-1.7445,-1.7181,-1.7178,-1.7175,-1.7173,0,0,-1.7606,-1.7546,-1.7564,-1.7554,-1.7518,-1.7536,-1.7576,-1.7575,-1.7588,-1.7577,-1.7609,-1.7631,-1.7576,-1.7573,-1.7525,-1.7562,-1.7684,-1.7498,-1.7496,-1.7534,-1.7794,-1.7839,-1.7863,-1.7644,-1.7647,-1.765,-1.7796,0,-1.7754,-1.7818,-1.7756,-1.7832,-1.7854,-1.7763,-1.7798,-1.778,-1.7748,-1.7762,-1.7726,-1.7743,-1.7669,-1.7666,-1.7698,-1.7662,-1.7735,-1.7651,-1.7674,-1.7675,-1.7683,-1.7887,-1.7935,-1.8074,-1.7814,-1.7817,-1.7819,0,-1.7937,-1.7932,-1.8011,-1.7969,-1.7975,-1.8008,-1.8002,-1.8016,-1.7994,-1.7968,-1.7964,-1.7906,-1.7942,-1.786,-1.7909,-1.7853,-1.7859,-1.7843,-1.7847,-1.7847,-1.7756,-1.7893,-1.8116,-1.8138,-1.7847,-1.7845,-1.7843,0,-1.8107,-1.8121,-1.8169,-1.8163,-1.8116,-1.814,-1.8122,-1.8095,-1.8099,-1.8095,-1.8096,-1.8097,-1.8098,-1.81,-1.8043,-1.7988,-1.8101,-1.8013,-1.808,-1.8082,-1.8109,-1.8108,-1.8337,-1.8112,-1.8112,-1.8111,-1.8111,0,-1.828,-1.8332,-1.8245,-1.8275,-1.833,-1.8258,-1.8315,-1.8287,-1.8264,-1.8288,-1.821,-1.8234,-1.8157,-1.8174,-1.813,-1.8178,-1.8179,-1.8159,-1.8147,-1.8166,-1.8169,-1.8169,-1.8158,-1.8117,-1.8116,-1.8115,-1.8114,0,-1.848,-1.8424,-1.8471,-1.8421,-1.841,-1.8453,-1.8411,-1.8437,-1.8398,-1.8429,-1.8432,-1.8373,-1.8388,-1.8331,-1.8337,-1.8307,-1.8378,-1.835,-1.8386,-1.8377,-1.8448,-1.8442,-1.8685,-1.8714,-1.8471,-1.8473,-1.8475,0,-1.8595,-1.8632,-1.8586,-1.8595,-1.8581,-1.8597,-1.86,-1.853,-1.8537,-1.8514,-1.8543,-1.8551,-1.8554,-1.8582,-1.854,-1.8543,-1.8515,-1.8599,-1.8515,-1.8533,-1.8516,-1.8515,-1.8519,-1.8618,-1.8621,-1.8623,-1.8625,0,-1.8804,-1.8774,-1.878,-1.8777,-1.8782,-1.8777,-1.8766,-1.8779,-1.8704,-1.8715,-1.8728,-1.8731,-1.8735,-1.8745,-1.8739,-1.8721,-1.8662,-1.8652,-1.8668,-1.8688,-1.8708,-1.8698,-1.8434,-1.8647,-1.8645,-1.8643,-1.8642,-1.8641,-1.8965,-1.8993,-1.8965,-1.8975,-1.8959,-1.8951,-1.8972,-1.8936,-1.8945,-1.8943,-1.8902,-1.8923,-1.89,-1.8886,-1.8874,-1.889,-1.8851,-1.8874,-1.8879,-1.8886,-1.8899,-1.8705,-1.8889,-1.8888,-1.8888,-1.8887,-1.8887,0,-1.917,-1.9147,-1.9156,-1.9143,-1.9151,-1.9092,-1.9077,-1.9088,-1.9107,-1.909,-1.9093,-1.9109,-1.9117,-1.9075,-1.9078,-1.9099,-1.9072,-1.9102,-1.91,-1.9097,-1.8934,-1.892,-1.9124,-1.9124,-1.9124,-1.9124,-1.9124,-1.9124,-1.9278,-1.9323,-1.929,-1.9326,-1.9303,-1.9322,-1.9319,-1.9311,-1.9296,-1.9316,-1.9322,-1.9294,-1.9267,-1.9267,-1.9272,-1.9259,-1.9264,-1.9305,-1.9283,-1.9132,-1.9109,-1.9087,-1.9073,-1.9306,-1.9306,-1.9445,-1.9446,-1.9447]},{"header":{"parameterUnit":"m.s-1","parameterCategory":1,"la1":30.2991,"la2":30.254,"lo1":-89.0895,"lo2":-89.0444,"dy":0.0017,"dx":0.0017,"nx":28,"ny":28,"refTime":"2023-09-29T21:00:00:Z","depth":0,"parameterNumber":3,"parameterNumberName":"V-component_of_WINDS"},"data":[0,0,0,0,0,0,0,0,0,0,0,0,0,0,0,0,0,0,0,0,0,0,0,0,0,0,0,0,0,0,0,0,0,0,0,0,0,0,0,0,0,0,0,0,0,0,0,0,0,0,0,0,0,0,0,0,0,0,-1.6976,-1.6977,0,-1.7078,-1.708,-1.7081,-1.712,-1.7119,-1.7119,-1.7119,-1.7222,-1.7225,-1.7228,0,0,0,0,0,0,0,0,0,0,0,0,0,-1.6813,-1.6816,-1.6976,-1.6977,-1.6979,-1.7078,-1.708,-1.7081,-1.712,-1.7119,-1.7119,-1.7119,-1.7221,-1.7225,-1.7229,0,0,0,0,0,0,0,0,0,0,0,0,0,-1.6896,-1.6817,-1.6976,-1.701,-1.7014,-1.7078,-1.708,-1.7081,-1.712,-1.7119,-1.7119,-1.7118,-1.722,-1.7225,-1.7229,-1.7266,0,0,-1.7243,-1.7245,0,0,0,0,0,0,0,0,-1.6892,-1.6902,-1.7004,-1.7008,-1.7012,-1.7086,-1.706,-1.7143,-1.712,-1.708,-1.7119,-1.7118,-1.7177,-1.7185,-1.7205,-1.7271,-1.7276,-1.7243,-1.7246,-1.7248,-1.7249,0,0,0,0,0,0,0,-1.6886,-1.6898,-1.7017,-1.7005,-1.701,-1.702,-1.7031,-1.7076,-1.713,-1.7083,-1.7086,-1.7098,-1.7179,-1.7201,-1.7208,-1.7277,-1.7243,-1.7247,-1.725,-1.7252,-1.7378,-1.7378,0,0,0,0,0,0,-1.6875,-1.6893,-1.7013,-1.702,-1.695,-1.7023,-1.7036,-1.7063,-1.7129,-1.7139,-1.7098,-1.7099,-1.7193,-1.7203,-1.7212,-1.7259,-1.7248,-1.7252,-1.7255,-1.7377,-1.7378,-1.7379,0,0,0,0,0,0,-1.6871,-1.6885,-1.7009,-1.6957,-1.6974,-1.7026,-1.7056,-1.7065,-1.7086,-1.7141,-1.715,-1.711,-1.7193,-1.7205,-1.7252,-1.7264,-1.7254,-1.7259,-1.7376,-1.7377,-1.7378,-1.7355,0,0,0,0,0,0,-1.6866,-1.6883,-1.6898,-1.6957,-1.6976,-1.7048,-1.7057,-1.7067,-1.7094,-1.7097,-1.7155,-1.7164,-1.7194,-1.7245,-1.7257,-1.727,-1.7262,-1.7376,-1.7377,-1.7378,-1.7355,-1.7355,-1.7355,0,0,0,0,0,-1.686,-1.6888,-1.6899,-1.6913,-1.6996,-1.7049,-1.706,-1.7094,-1.7095,-1.711,-1.7145,-1.7162,-1.7261,-1.725,-1.7263,-1.7277,-1.7375,-1.7377,-1.7378,-1.7355,-1.7355,-1.7355,0,0,0,0,0,0,-1.6828,-1.6896,-1.6909,-1.6957,-1.6997,-1.7055,-1.7076,-1.7093,-1.7134,-1.7134,-1.7175,-1.7188,-1.7231,-1.7259,-1.7246,-1.7317,-1.7319,-1.7323,-1.7297,-1.7297,-1.7297,-1.729,-1.7266,0,0,0,0,0,-1.6827,-1.6864,-1.6921,-1.6958,-1.6977,-1.7023,-1.7047,-1.707,-1.7113,-1.713,-1.7168,-1.7209,-1.7249,-1.7275,-1.7315,-1.7359,-1.7372,-1.7376,-1.7375,-1.7375,-1.7378,-1.7403,-1.7405,-1.7383,-1.7383,-1.7383,0,0,-1.6824,-1.6866,-1.6887,-1.6952,-1.6986,-1.7023,-1.7037,-1.7076,-1.7104,-1.7136,-1.7183,-1.7212,-1.726,-1.7306,-1.7328,-1.733,-1.7387,-1.7377,-1.7376,-1.738,-1.7405,-1.7407,-1.7409,-1.7384,-1.7384,-1.7384,0,0,-1.6838,-1.6874,-1.6908,-1.6941,-1.6992,-1.7023,-1.7031,-1.7087,-1.7107,-1.7155,-1.718,-1.7213,-1.7282,-1.7315,-1.7341,-1.7367,-1.7384,-1.7379,-1.7379,-1.7402,-1.7404,-1.7406,-1.7415,-1.7418,-1.7382,-1.7382,-1.7382,0,-1.6829,-1.6886,-1.6923,-1.6961,-1.6988,-1.702,-1.7054,-1.7085,-1.7146,-1.7164,-1.7166,-1.7252,-1.7287,-1.7341,-1.7347,-1.7367,-1.7377,-1.7372,-1.7401,-1.7403,-1.7405,-1.7414,-1.7417,-1.7381,-1.7381,-1.7381,-1.7381,0,-1.6871,-1.6911,-1.6932,-1.6991,-1.7021,-1.7057,-1.7098,-1.7124,-1.7145,-1.7174,-1.7222,-1.7265,-1.7314,-1.7328,-1.7348,-1.7384,-1.7384,-1.7393,-1.7396,-1.7406,-1.7415,-1.7419,-1.7379,-1.738,-1.738,-1.738,0,0,-1.6869,-1.6947,-1.6954,-1.6981,-1.7039,-1.707,-1.7107,-1.7155,-1.7176,-1.7217,-1.7249,-1.7306,-1.7314,-1.7344,-1.7368,-1.7389,-1.7406,-1.7395,-1.7397,-1.7395,-1.7448,-1.744,-1.7444,-1.7418,-1.7419,-1.7419,-1.7444,0,-1.689,-1.6958,-1.6992,-1.7045,-1.7081,-1.7111,-1.7143,-1.7182,-1.7211,-1.7246,-1.7277,-1.7317,-1.7325,-1.7343,-1.7365,-1.7399,-1.7417,-1.7398,-1.7447,-1.7448,-1.7434,-1.7449,-1.7441,-1.7462,-1.7448,-1.7448,-1.7449,0,-1.6925,-1.6965,-1.7022,-1.7075,-1.7092,-1.712,-1.7167,-1.72,-1.7245,-1.7264,-1.7296,-1.732,-1.7359,-1.736,-1.7414,-1.7401,-1.7423,-1.7442,-1.7444,-1.745,-1.7449,-1.7454,-1.747,-1.7473,-1.7455,-1.7454,-1.7454,0,-1.6916,-1.6985,-1.7028,-1.705,-1.7114,-1.7133,-1.716,-1.7204,-1.7231,-1.7271,-1.7289,-1.7333,-1.7358,-1.7391,-1.7426,-1.7423,-1.7477,-1.748,-1.7494,-1.7493,-1.7504,-1.7503,-1.7523,-1.7518,-1.7518,-1.7518,-1.7518,0,-1.6936,-1.697,-1.7025,-1.7051,-1.7089,-1.7127,-1.7164,-1.7193,-1.7232,-1.7264,-1.7293,-1.7322,-1.7367,-1.7402,-1.7429,-1.747,-1.7481,-1.7497,-1.7504,-1.7494,-1.7492,-1.7509,-1.7509,-1.7519,-1.7519,-1.7519,-1.7519,0,-1.6933,-1.6972,-1.702,-1.7076,-1.7091,-1.7117,-1.7165,-1.7191,-1.7221,-1.7261,-1.7273,-1.732,-1.7362,-1.7401,-1.7457,-1.7475,-1.7517,-1.7526,-1.7502,-1.7505,-1.7517,-1.7515,-1.7548,-1.7554,-1.7546,-1.7546,-1.7546,0,-1.6944,-1.697,-1.7029,-1.7053,-1.7079,-1.7117,-1.7144,-1.7183,-1.721,-1.7263,-1.7282,-1.7327,-1.7365,-1.7431,-1.747,-1.7513,-1.7523,-1.7532,-1.753,-1.7519,-1.7523,-1.7521,-1.7523,-1.7531,-1.7531,-1.7531,-1.7531,0,-1.6958,-1.6975,-1.7014,-1.7058,-1.709,-1.7127,-1.7165,-1.7183,-1.7229,-1.7258,-1.7301,-1.7331,-1.7388,-1.7432,-1.7479,-1.7507,-1.7527,-1.7531,-1.7537,-1.7527,-1.7512,-1.752,-1.75,-1.753,-1.753,-1.753,-1.753,-1.7531,-1.6962,-1.6986,-1.7031,-1.7073,-1.7105,-1.714,-1.7168,-1.7201,-1.7238,-1.7288,-1.7309,-1.7353,-1.7397,-1.7462,-1.749,-1.7525,-1.7529,-1.7537,-1.7539,-1.754,-1.7538,-1.7507,-1.7534,-1.7534,-1.7534,-1.7534,-1.7534,0,-1.6977,-1.7007,-1.7045,-1.7097,-1.713,-1.7145,-1.7188,-1.7214,-1.7253,-1.7292,-1.7329,-1.7379,-1.7421,-1.7463,-1.7508,-1.7528,-1.7538,-1.7538,-1.7537,-1.7543,-1.7532,-1.7523,-1.7529,-1.7529,-1.7529,-1.7529,-1.7529,-1.7529,-1.6988,-1.703,-1.7053,-1.7112,-1.7142,-1.7186,-1.7209,-1.7241,-1.7272,-1.7327,-1.7362,-1.739,-1.743,-1.7478,-1.7517,-1.7529,-1.7544,-1.7541,-1.7555,-1.7544,-1.7544,-1.7544,-1.7535,-1.7544,-1.7544,-1.7563,-1.7563,-1.7563]}]]